STARLINK-34330, 64227

Orbit data source: Space-Track

STARLINK-34330, 64227 is a payload satellite owned by SpaceX/Seattle (US) in LEO that was launched on Thu, 05 Jun 2025 UTC via an FALCON 9 launch vehicle from the Air Force Western Test Range (AFWTR). Payload-class satellites include a variety of spacecraft equipped with specific instruments for various scientific and technological missions. These include communications satellites like Starlink; space stations such as the ISS; scientific satellites like the Hubble; Earth observation satellites from companies like Planet Labs, Umbra, and HawkEye 360; GPS; miniature CubeSats for education and research; and military/defense satellites.

Loading next visibility...
Identifier
64227, 2025-117AA
Orbit
LEO
Last TLE update
3 hours ago
Origin
Manufacturer
SpaceX/Seattle
Mission
Operational spacecraft
Bus & Motor
STARLINK V2MO, Unknown motor
Mass
575 kg wet, ~530 kg dry
Launch date (UTC)
2025-06-05 (2 weeks ago)
Launch vehicle
FALCON 9
Launch site
Air Force Western Test Range (AFWTR)
Object type
Payload
Rocket body
Debris
Shape & HBR
Unknown
Radar Cross Section
Large (>1 m²)

Expand to show TLE details & history

TLE from 3 hours ago
0 STARLINK-34330
1 64227U 25117AA  25170.16670139 -.01576963  00000-0 -15641-1 0  9992
2 64227  53.1602 189.1856 0001314  98.4811 173.3026 15.68081546  3063
Epoch: 2025-06-19T04:00Z
TLE epoch observation values (Epoch: 2025-06-19T04:00:03Z)
Latitude
-53.27741°
Longitude
134.50383°
Altitude
383.782 km
Speed
7.679 km/s
True Right ascension
06h 48m 37s
True Declination
-53° 06' 12"
Sunlit
Object was in daylight at epoch
Visualization orbit readout
Latitude
-32.93748°
Longitude
-167.99011°
Altitude
376.679 km
Speed
7.683 km/s
Apparent Right ascension
08h 33m 38s
Apparent Declination
-41° 22' 51"
Sunlit
Object is in daylight
Visualization observer readout
Local Sidereal Time
18:05:54
Azimuth
254.838° W
Elevation
-62.152°
Doppler factor
1
Orbital elements
Apogee altitude
365.537 km
Perigee altitude
363.765 km
Semi-major axis
6,742.788 km
Eccentricity
0.00013
Inclination
53.1602°
RAAN
189.1856°
Arg. of periapsis
98.4811°
True anomaly
Unknown
Mean anomaly
173.3026°
Eccentric anomaly
Unknown
Mean motion
3.91998 °/min
Orbital period
91.84 mins
BSTAR
-0.015641
Loading maneuver chart data...
Loading SW <> Apogee altitude chart data...
Loading historical data...
Loading historical data...
Loading historical data...
Loading historical data...
Loading historical data...
Loading historical data...
Loading historical data...

STARLINK-34330 Visibility forecast

Observer location: undefined°, undefined°

Span
Click to sort rows by Start time (UTC) header in descending order
Start Az.
Max El. time (UTC)
Max El. Az.
Max El.
End time (UTC)
End Az.
4 mins2025-06-19 11:00:17.789Z312.829° NW2025-06-19 11:02:17.789Z112.641° SE43.072°2025-06-19 11:04:17.789Z128.056° SE
4 mins2025-06-20 03:32:17.789Z188.584° SSW2025-06-20 03:33:17.789Z142.609° SSE34.981°2025-06-20 03:36:17.789Z61.636° ENE
|